| time (UTC) | temp F | wind direction | speed MPH | gust MPH | rain 1hr in | rain 24hr in | rain mn in | humidity % | barometer mb |
| 20260903083116 | 61 | 215 | 0.0 | 0.0 | 0.00 | 0.00 | 0.00 | 44 | 1004.5 |
| 20260903081600 | 61 | 215 | 0.0 | 0.0 | 0.00 | 0.00 | 0.00 | 43 | 1004.5 |
| 20260903080001 | 62 | 215 | 0.0 | 0.0 | 0.00 | 0.00 | 0.00 | 42 | 1004.4 |
| 20260903074614 | 63 | 215 | 0.0 | 0.0 | 0.00 | 0.00 | 0.00 | 43 | 1004.4 |
| 20260903073137 | 64 | 215 | 0.0 | 0.0 | 0.00 | 0.00 | 0.00 | 39 | 1003.9 |
| 20260903071617 | 64 | 215 | 0.0 | 0.0 | 0.00 | 0.00 | 0.00 | 38 | 1003.6 |
| 20260903070011 | 64 | 214 | 0.0 | 0.0 | 0.00 | 0.00 | 0.00 | 35 | 1003.6 |
| 20260903064624 | 64 | 215 | 0.0 | 0.0 | 0.00 | 0.00 | 0.00 | 35 | 1003.5 |
| 20260903063007 | 65 | 214 | 0.0 | 0.0 | 0.00 | 0.00 | 0.00 | 36 | 1003.3 |
| 20260903061621 | 65 | 215 | 0.0 | 0.0 | 0.00 | 0.00 | 0.00 | 35 | 1003.0 |
| 20260903060041 | 65 | 215 | 0.0 | 0.0 | 0.00 | 0.00 | 0.00 | 38 | 1002.9 |
| 20260903054503 | 65 | 215 | 0.0 | 0.0 | 0.00 | 0.00 | 0.00 | 36 | 1003.0 |
| 20260903053117 | 66 | 215 | 0.0 | 0.0 | 0.00 | 0.00 | 0.00 | 37 | 1002.8 |
| 20260903051543 | 66 | 215 | 0.0 | 0.0 | 0.00 | 0.00 | 0.00 | 35 | 1002.8 |
| 20260903050001 | 66 | 214 | 0.0 | 0.0 | 0.00 | 0.00 | 0.00 | 34 | 1003.0 |
| 20260903044628 | 67 | 215 | 0.0 | 0.0 | 0.00 | 0.00 | 0.00 | 34 | 1003.0 |
| 20260903043102 | 67 | 215 | 0.0 | 0.0 | 0.00 | 0.00 | 0.00 | 34 | 1002.9 |
| 20260903041518 | 67 | 215 | 0.0 | 0.0 | 0.00 | 0.00 | 0.00 | 35 | 1002.6 |
| 20260903040133 | 68 | 215 | 0.0 | 0.0 | 0.00 | 0.00 | 0.00 | 33 | 1002.3 |
| 20260903034620 | 69 | 215 | 0.0 | 0.0 | 0.00 | 0.00 | 0.00 | 33 | 1002.3 |
| 20260903033050 | 70 | 215 | 0.0 | 0.0 | 0.00 | 0.00 | 0.00 | 31 | 1002.4 |
| 20260903031506 | 71 | 215 | 0.0 | 0.0 | 0.00 | 0.00 | 0.00 | 29 | 1002.2 |
| 20260903030057 | 73 | 215 | 0.0 | 0.0 | 0.00 | 0.00 | 0.00 | 26 | 1002.0 |
| 20260903024516 | 75 | 215 | 0.0 | 0.0 | 0.00 | 0.00 | 0.00 | 24 | 1001.6 |
| 20260903023004 | 76 | 214 | 1.0 | 0.0 | 0.00 | 0.00 | 0.00 | 21 | 1001.4 |
| 20260903021625 | 77 | 199 | 2.0 | 0.0 | 0.00 | 0.00 | 0.00 | 19 | 1001.3 |
| 20260903020002 | 77 | 198 | 2.0 | 0.0 | 0.00 | 0.00 | 0.00 | 19 | 1001.5 |
| 20260903014600 | 78 | 190 | 3.0 | 0.0 | 0.00 | 0.00 | 0.00 | 19 | 1001.6 |
| 20260903013125 | 79 | 204 | 3.0 | 0.0 | 0.00 | 0.00 | 0.00 | 18 | 1001.8 |
| 20260903011524 | 79 | 193 | 4.0 | 0.0 | 0.00 | 0.00 | 0.00 | 18 | 1001.7 |
| 20260903010122 | 80 | 207 | 4.0 | 0.0 | 0.00 | 0.00 | 0.00 | 18 | 1001.9 |
| 20260903004608 | 79 | 192 | 5.0 | 0.0 | 0.00 | 0.00 | 0.00 | 17 | 1002.0 |
| 20260903003015 | 79 | 189 | 5.0 | 0.0 | 0.00 | 0.00 | 0.00 | 19 | 1002.0 |
| 20260903001629 | 80 | 200 | 4.0 | 0.0 | 0.00 | 0.00 | 0.00 | 20 | 1002.2 |
| 20260903000057 | 80 | 186 | 4.0 | 0.0 | 0.00 | 0.00 | 0.00 | 20 | 1002.1 |
| 20260902234502 | 80 | 200 | 6.0 | 0.0 | 0.00 | 0.00 | 0.00 | 19 | 1002.2 |
| 20260902233124 | 80 | 198 | 5.0 | 0.0 | 0.00 | 0.00 | 0.00 | 21 | 1002.4 |
| 20260902231614 | 81 | 178 | 7.0 | 0.0 | 0.00 | 0.00 | 0.00 | 21 | 1002.4 |
| 20260902230022 | 81 | 140 | 5.0 | 0.0 | 0.00 | 0.00 | 0.00 | 20 | 1001.9 |
| 20260902224626 | 81 | 198 | 8.0 | 0.0 | 0.00 | 0.00 | 0.00 | 21 | 1001.9 |
| 20260902223052 | 82 | 222 | 6.0 | 0.0 | 0.00 | 0.00 | 0.00 | 21 | 1002.1 |
| 20260902221516 | 81 | 219 | 6.0 | 0.0 | 0.00 | 0.00 | 0.00 | 23 | 1002.4 |
| 20260902220118 | 81 | 207 | 8.0 | 0.0 | 0.00 | 0.00 | 0.00 | 25 | 1002.7 |
| 20260902214517 | 82 | 213 | 7.0 | 0.0 | 0.00 | 0.00 | 0.00 | 22 | 1002.6 |
| 20260902213137 | 83 | 184 | 7.0 | 0.0 | 0.00 | 0.00 | 0.00 | 23 | 1002.6 |
| 20260902211623 | 82 | 169 | 9.0 | 0.0 | 0.00 | 0.00 | 0.00 | 23 | 1002.6 |
| 20260902210009 | 83 | 210 | 8.0 | 0.0 | 0.00 | 0.00 | 0.00 | 24 | 1002.8 |
| 20260902204630 | 82 | 193 | 8.0 | 0.0 | 0.00 | 0.00 | 0.00 | 24 | 1002.9 |
| 20260902203113 | 83 | 196 | 7.0 | 0.0 | 0.00 | 0.00 | 0.00 | 23 | 1003.2 |
| 20260902201630 | 82 | 218 | 6.0 | 0.0 | 0.00 | 0.00 | 0.00 | 25 | 1003.3 |
| 20260902200050 | 81 | 207 | 9.0 | 0.0 | 0.00 | 0.00 | 0.00 | 25 | 1003.4 |
| 20260902194636 | 81 | 192 | 8.0 | 0.0 | 0.00 | 0.00 | 0.00 | 26 | 1003.6 |
| 20260902193116 | 81 | 167 | 7.0 | 0.0 | 0.00 | 0.00 | 0.00 | 26 | 1003.7 |
| 20260902191505 | 80 | 201 | 8.0 | 0.0 | 0.00 | 0.00 | 0.00 | 27 | 1003.8 |
| 20260902190121 | 80 | 185 | 7.0 | 0.0 | 0.00 | 0.00 | 0.00 | 31 | 1004.0 |
| 20260902184555 | 79 | 206 | 10.0 | 0.0 | 0.00 | 0.00 | 0.00 | 31 | 1003.9 |
| 20260902183007 | 79 | 190 | 6.0 | 0.0 | 0.00 | 0.00 | 0.00 | 32 | 1004.2 |
| 20260902181618 | 78 | 187 | 6.0 | 0.0 | 0.00 | 0.00 | 0.00 | 34 | 1004.6 |
| 20260902180054 | 77 | 78 | 6.0 | 0.0 | 0.00 | 0.00 | 0.00 | 35 | 1004.8 |
| 20260902174632 | 77 | 186 | 6.0 | 0.0 | 0.00 | 0.00 | 0.00 | 35 | 1005.0 |
| 20260902173112 | 76 | 169 | 6.0 | 0.0 | 0.00 | 0.00 | 0.00 | 39 | 1005.2 |
| 20260902171512 | 76 | 196 | 6.0 | 0.0 | 0.00 | 0.00 | 0.00 | 39 | 1005.5 |
| 20260902170130 | 76 | 213 | 6.0 | 0.0 | 0.00 | 0.00 | 0.00 | 39 | 1005.5 |
| 20260902164601 | 74 | 194 | 6.0 | 0.0 | 0.00 | 0.00 | 0.00 | 39 | 1005.6 |
| 20260902163001 | 75 | 195 | 6.0 | 0.0 | 0.00 | 0.00 | 0.00 | 38 | 1005.6 |
| 20260902161632 | 75 | 223 | 7.0 | 0.0 | 0.00 | 0.00 | 0.00 | 37 | 1005.6 |
| 20260902160049 | 75 | 160 | 6.0 | 0.0 | 0.00 | 0.00 | 0.00 | 37 | 1005.7 |
| 20260902154636 | 74 | 190 | 4.0 | 0.0 | 0.00 | 0.00 | 0.00 | 38 | 1005.7 |
| 20260902153122 | 74 | 167 | 7.0 | 0.0 | 0.00 | 0.00 | 0.00 | 37 | 1005.7 |
| 20260902151611 | 74 | 223 | 6.0 | 0.0 | 0.00 | 0.00 | 0.00 | 38 | 1005.9 |
| 20260902150047 | 73 | 218 | 5.0 | 0.0 | 0.00 | 0.00 | 0.00 | 39 | 1005.5 |
| 20260902144513 | 72 | 165 | 7.0 | 0.0 | 0.00 | 0.00 | 0.00 | 38 | 1005.4 |
| 20260902143126 | 72 | 195 | 4.0 | 0.0 | 0.00 | 0.00 | 0.00 | 40 | 1005.3 |
| 20260902141555 | 72 | 196 | 5.0 | 0.0 | 0.00 | 0.00 | 0.00 | 40 | 1005.2 |
| 20260902140030 | 72 | 213 | 4.0 | 0.0 | 0.00 | 0.00 | 0.00 | 39 | 1005.2 |
| 20260902134620 | 72 | 187 | 5.0 | 0.0 | 0.00 | 0.00 | 0.00 | 39 | 1005.2 |
| 20260902133022 | 72 | 209 | 5.0 | 0.0 | 0.00 | 0.00 | 0.00 | 38 | 1005.4 |
| 20260902131632 | 72 | 179 | 6.0 | 0.0 | 0.00 | 0.00 | 0.00 | 38 | 1005.2 |
| 20260902130041 | 71 | 213 | 4.0 | 0.0 | 0.00 | 0.00 | 0.00 | 42 | 1005.2 |
| 20260902124526 | 65 | 208 | 2.0 | 0.0 | 0.00 | 0.00 | 0.00 | 52 | 1005.2 |
| 20260902123122 | 64 | 10 | 1.0 | 0.0 | 0.00 | 0.00 | 0.00 | 59 | 1005.3 |
| 20260902121614 | 64 | 10 | 1.0 | 0.0 | 0.00 | 0.00 | 0.00 | 60 | 1005.1 |
| 20260902120025 | 64 | 10 | 1.0 | 0.0 | 0.00 | 0.00 | 0.00 | 59 | 1005.3 |
| 20260902114508 | 65 | 10 | 1.0 | 0.0 | 0.00 | 0.00 | 0.00 | 57 | 1005.2 |
| 20260902113119 | 65 | 10 | 0.0 | 0.0 | 0.00 | 0.00 | 0.00 | 57 | 1005.2 |
| 20260902111526 | 65 | 10 | 1.0 | 0.0 | 0.00 | 0.00 | 0.00 | 56 | 1005.2 |
| 20260902110005 | 66 | 176 | 0.0 | 0.0 | 0.00 | 0.00 | 0.00 | 53 | 1005.3 |
| 20260902104620 | 68 | 177 | 0.0 | 0.0 | 0.00 | 0.00 | 0.00 | 50 | 1005.5 |
| 20260902103140 | 71 | 178 | 1.0 | 0.0 | 0.00 | 0.00 | 0.00 | 43 | 1005.5 |
| 20260902101601 | 74 | 214 | 5.0 | 0.0 | 0.00 | 0.00 | 0.00 | 33 | 1005.6 |
| 20260902100025 | 74 | 198 | 3.0 | 0.0 | 0.00 | 0.00 | 0.00 | 33 | 1005.6 |
| 20260902094626 | 74 | 209 | 4.0 | 0.0 | 0.00 | 0.00 | 0.00 | 33 | 1005.7 |
| 20260902093121 | 74 | 201 | 4.0 | 0.0 | 0.00 | 0.00 | 0.00 | 32 | 1005.8 |
| 20260902091504 | 75 | 43 | 6.0 | 0.0 | 0.00 | 0.00 | 0.00 | 33 | 1005.9 |
| 20260902090131 | 75 | 167 | 6.0 | 0.0 | 0.00 | 0.00 | 0.00 | 33 | 1006.0 |
| 20260902084607 | 74 | 200 | 5.0 | 0.0 | 0.00 | 0.00 | 0.00 | 34 | 1006.0 |